Weather History for Santa Ana, CA

Change the Weather History Date:

Saturday, July 27, 2013

  Actual Average Record
Temperature  
Mean Temperature 72 °F 72 °F  
Max Temperature 77 °F 79 °F 89 °F (2014)
Min Temperature 66 °F 65 °F 62 °F (1999)
Degree Days  
Heating Degree Days 0 0  
Month to date heating degree days 0 0  
Since 1 June heating degree days 0 7  
Since 1 July heating degree days 0 0  
Cooling Degree Days 7 7  
Month to date cooling degree days 206 163  
Year to date cooling degree days 401 306  
Since 1 June cooling degree days 321 239  
Growing Degree Days 20 (Base 50)    
Moisture  
Dew Point 60 °F    
Average Humidity 71    
Maximum Humidity 81    
Minimum Humidity 60    
Precipitation  
Precipitation 0.00 in 0.00 in 0.00 in (2014)
Month to date precipitation 0.12 0.03  
Year to date precipitation 2.09 8.99  
Since 1 July precipitation 0.12 0.03  
Snow  
Snow 0.00 in - - ()
Month to date snowfall 0.0  
Year to date snowfall 0.0  
Since 1 July snowfall 0.0  
Snow Depth 0.00 in    
Sea Level Pressure  
Sea Level Pressure 29.96 in    
Wind  
Wind Speed 5 mph (SW)    
Max Wind Speed 14 mph    
Max Gust Speed 18 mph    
Visibility 9 miles    
Events      
T = Trace of Precipitation, MM = Missing Value Source: NWS Daily Summary

Daily Weather History Graph

Daily Weather History Graph

Search for Another Location

Airport:

Trip Planner

Search our weather history database for the weather conditions in past years. The results will help you decide how hot, cold, wet, or windy it might be!

Date:

Astronomy

Jul. 27, 2013 Rise Set
Actual Time 6:00 AM PDT 7:55 PM PDT
Civil Twilight 5:32 AM PDT 8:22 PM PDT
Nautical Twilight 4:59 AM PDT 8:56 PM PDT
Astronomical Twilight 4:23 AM PDT 9:31 PM PDT
Moon 11:06 PM PDT (7/27) 11:25 AM PDT (7/27)
Length of Visible Light 14h 50m
Length of Day
13h 54m
Waning Gibbous, 70% of the Moon is Illuminated
Jul 27
Waning Gibbous
Jul 29
Last Quarter
Aug 6
New
Aug 14
First Quarter
Aug 20
Full

Hourly Weather History & Observations

Time (PDT) Temp. Dew Point Humidity Pressure Visibility Wind Dir Wind Speed Gust Speed Precip Events Conditions
12:53 AM 68.0 °F 59.0 °F 73% 30.01 in 10.0 mi Calm Calm - N/A   Clear
1:53 AM 68.0 °F 59.0 °F 73% 30.00 in 10.0 mi SW 3.5 mph - N/A   Clear
2:53 AM 66.9 °F 60.1 °F 79% 30.00 in 9.0 mi SSW 4.6 mph - N/A   Clear
3:53 AM 66.9 °F 60.1 °F 79% 29.99 in 8.0 mi WSW 3.5 mph - N/A   Clear
4:41 AM 66.2 °F 60.8 °F 83% 30.00 in 9.0 mi Calm Calm - N/A   Partly Cloudy
4:53 AM 66.0 °F 60.1 °F 81% 29.99 in 8.0 mi Calm Calm - N/A   Partly Cloudy
5:25 AM 66.2 °F 60.8 °F 83% 30.00 in 9.0 mi Calm Calm - N/A   Mostly Cloudy
5:53 AM 66.0 °F 60.1 °F 81% 30.00 in 8.0 mi Calm Calm - N/A   Overcast
6:05 AM 66.2 °F 60.8 °F 83% 30.01 in 8.0 mi Calm Calm - N/A   Overcast
6:53 AM 66.9 °F 59.0 °F 76% 30.00 in 6.0 mi Variable 4.6 mph - N/A   Haze
7:53 AM 66.0 °F 60.1 °F 81% 30.01 in 6.0 mi Calm Calm - N/A   Haze
8:53 AM 66.0 °F 60.1 °F 81% 30.01 in 7.0 mi Calm Calm - N/A   Overcast
9:53 AM 68.0 °F 60.1 °F 76% 30.00 in 8.0 mi Calm Calm - N/A   Overcast
10:50 AM 71.6 °F 60.8 °F 69% 29.99 in 10.0 mi Calm Calm - N/A   Mostly Cloudy
10:53 AM 72.0 °F 61.0 °F 68% 29.99 in 10.0 mi Variable 4.6 mph - N/A   Mostly Cloudy
11:53 AM 75.9 °F 61.0 °F 60% 29.98 in 10.0 mi SSW 6.9 mph - N/A   Scattered Clouds
12:53 PM 75.0 °F 61.0 °F 62% 29.96 in 10.0 mi SW 8.1 mph - N/A   Scattered Clouds
1:53 PM 75.9 °F 61.0 °F 60% 29.94 in 10.0 mi SW 9.2 mph - N/A   Scattered Clouds
2:53 PM 75.0 °F 60.1 °F 60% 29.93 in 10.0 mi SW 10.4 mph 17.3 mph N/A   Scattered Clouds
3:53 PM 73.9 °F 60.1 °F 62% 29.92 in 10.0 mi SW 11.5 mph - N/A   Scattered Clouds
4:53 PM 72.0 °F 60.1 °F 66% 29.91 in 10.0 mi SW 10.4 mph - N/A   Scattered Clouds
5:53 PM 72.0 °F 59.0 °F 64% 29.89 in 10.0 mi SW 8.1 mph - N/A   Scattered Clouds
6:53 PM 69.1 °F 59.0 °F 70% 29.89 in 10.0 mi SSW 10.4 mph - N/A   Scattered Clouds
7:43 PM 68.0 °F 59.0 °F 73% 29.90 in 8.0 mi WSW 8.1 mph - N/A   Mostly Cloudy
7:53 PM 68.0 °F 59.0 °F 73% 29.90 in 8.0 mi SW 8.1 mph - N/A   Mostly Cloudy
8:53 PM 66.9 °F 59.0 °F 76% 29.92 in 9.0 mi WSW 4.6 mph - N/A   Overcast
9:53 PM 66.0 °F 57.9 °F 75% 29.93 in 9.0 mi WSW 4.6 mph - N/A   Overcast
10:53 PM 66.0 °F 59.0 °F 78% 29.92 in 9.0 mi SW 4.6 mph - N/A   Overcast
11:00 PM 66.2 °F 59.0 °F 78% 29.92 in 10.0 mi SW 4.6 mph - N/A   Overcast
11:53 PM 64.9 °F 59.0 °F 81% 29.92 in 9.0 mi SSW 5.8 mph - N/A   Overcast